DW7601 San Vito IT current weather conditions

sailwx.info

Wind from 067

Air temperature 13.9° C
Dewpoint 8.1° C

Last reported at 2014-Oct-31 19:41 UTC.
Time now 2014-Nov-01 10:33 UTC

Location: N 39°27' E 009°32'.
View on Google Maps.

See reports from other nearby stations

  
Tides and Currents Weather Stations Pressure Air Temp Water Temp Dewpoint Dewpoint Depression Visibility Wind Speed Wind Dir Waves Ship Positions
date/time (UTC)wind fromknots sea level pressurealtimeterstation pressurevisibilityair tempwater tempwave heightnotes
2014-Oct-31 19:41 067 13.9
2014-Oct-31 19:31 319 13.9
2014-Oct-31 19:21 339 13.9
2014-Oct-31 19:11 358 14.4
2014-Oct-31 19:01 331 14.4
2014-Oct-31 18:51 274 15.0
2014-Oct-31 18:41 269 0 gusting 1 15.0
2014-Oct-31 18:31 268 15.0
2014-Oct-31 18:21 018 15.6
2014-Oct-31 18:11 042 0 gusting 1 15.6
2014-Oct-31 18:01 225 0 gusting 1 16.1
2014-Oct-31 17:51 181 16.1
2014-Oct-31 17:41 267 16.7
2014-Oct-31 17:31 116 16.7
2014-Oct-31 17:21 336 17.2
2014-Oct-31 17:11 249 0 gusting 1 17.2
2014-Oct-31 17:01 270 17.2
2014-Oct-31 16:51 132 17.8
2014-Oct-31 16:41 112 17.8
2014-Oct-31 16:31 176 18.3
2014-Oct-31 16:21 268 18.3
2014-Oct-31 16:11 199 18.9
2014-Oct-31 16:01 359 18.9
2014-Oct-31 15:51 268 19.4
2014-Oct-31 15:41 341 20.0
2014-Oct-31 15:31 228 1 gusting 4 20.6
2014-Oct-31 15:21 292 1 gusting 4 21.7
2014-Oct-31 15:11 046 2 gusting 5 22.2
2014-Oct-31 15:01 045 1 gusting 2 22.8
2014-Oct-31 14:51 069 1 gusting 5 22.8
2014-Oct-31 14:41 089 1 gusting 5 22.8
2014-Oct-31 14:31 047 1 gusting 4 23.3
2014-Oct-31 14:21 109 1 gusting 4 22.8
2014-Oct-31 14:11 045 2 gusting 6 23.3
2014-Oct-31 14:01 127 1 gusting 4 23.3
2014-Oct-31 13:51 046 2 gusting 6 22.8
2014-Oct-31 13:41 023 3 gusting 6 22.8
2014-Oct-31 13:31 109 2 gusting 6 22.8
2014-Oct-31 13:21 047 4 gusting 7 23.3
2014-Oct-31 13:11 025 4 gusting 7 23.3
2014-Oct-31 13:01 121 2 gusting 7 23.3
2014-Oct-31 12:51 089 2 gusting 10 23.3
2014-Oct-31 12:41 070 2 gusting 6 23.9
2014-Oct-31 12:31 336 2 gusting 5 23.9
2014-Oct-31 12:21 111 2 gusting 7 23.9
2014-Oct-31 12:11 087 0 gusting 1 24.4
2014-Oct-31 12:01 045 0 gusting 4 23.9
2014-Oct-31 11:51 068 1 gusting 4 23.9
2014-Oct-31 11:41 157 2 gusting 6 23.9
2014-Oct-31 11:31 090 1 gusting 6 23.9
2014-Oct-31 11:21 294 0 gusting 1 24.4
2014-Oct-31 11:11 088 0 gusting 4 23.9
2014-Oct-31 11:01 152 1 gusting 4 23.9
2014-Oct-31 10:51 045 1 gusting 5 23.9
2014-Oct-31 10:41 109 0 gusting 4 23.9
2014-Oct-31 10:31 023 1 gusting 4 23.3
2014-Oct-31 10:21 022 23.3
2014-Oct-31 10:11 180 22.8
2014-Oct-31 10:01 171 22.8
2014-Oct-31 09:51 270 22.8
2014-Oct-31 09:41 112 22.2
2014-Oct-31 09:31 110 21.1
2014-Oct-31 09:21 068 20.6
2014-Oct-31 09:11 065 19.4
2014-Oct-31 09:01 022 0 gusting 2 18.3
2014-Oct-31 08:51 045 0 gusting 2 17.8
2014-Oct-31 08:41 023 0 gusting 2 17.2
2014-Oct-31 08:31 066 1 gusting 2 16.7
2014-Oct-31 08:21 022 0 gusting 2 16.1
2014-Oct-31 08:11 006 1 gusting 4 15.0
2014-Oct-31 08:01 041 1 gusting 4 13.9
2014-Oct-31 07:51 022 1 gusting 5 13.3
2014-Oct-31 07:41 022 1 gusting 4 12.8
2014-Oct-31 07:31 018 1 gusting 4 12.8
2014-Oct-31 07:21 068 1 gusting 4 12.2
2014-Oct-31 07:11 023 1 gusting 4 12.2
2014-Oct-31 07:01 022 0 gusting 4 12.2
2014-Oct-31 06:51 023 1 gusting 2 11.7
2014-Oct-31 06:41 044 0 gusting 2 11.7
2014-Oct-31 06:31 339 11.7
2014-Oct-31 06:21 339 11.7
2014-Oct-31 06:11 338 11.7
2014-Oct-31 06:01 022 11.7
2014-Oct-31 05:51 043 12.2
2014-Oct-31 05:41 340 12.2
2014-Oct-31 05:31 340 12.2
2014-Oct-31 05:21 068 1 gusting 4 12.2
2014-Oct-31 05:11 001 0 gusting 4 12.2
2014-Oct-31 05:01 016 12.2
2014-Oct-31 04:51 294 12.2
2014-Oct-31 04:41 067 12.2
2014-Oct-31 04:31 12.2
2014-Oct-31 04:21 359 12.8
2014-Oct-31 04:11 022 12.8
2014-Oct-31 04:01 021 12.8
2014-Oct-31 03:51 340 12.8
2014-Oct-31 03:41 12.8
2014-Oct-31 03:31 12.8
2014-Oct-31 03:21 295 12.8
2014-Oct-31 03:11 001 12.8
2014-Oct-31 03:01 022 12.8
2014-Oct-31 02:51 019 13.3
2014-Oct-31 02:41 359 12.8
2014-Oct-31 02:31 019 13.3
2014-Oct-31 02:21 087 13.3
2014-Oct-31 02:11 022 13.3
2014-Oct-31 02:01 252 13.3
2014-Oct-31 01:51 022 13.3
2014-Oct-31 01:41 339 13.3
2014-Oct-31 01:31 341 13.3
2014-Oct-31 01:21 043 13.3
2014-Oct-31 01:11 022 13.3
2014-Oct-31 01:01 035 13.9
2014-Oct-31 00:51 043 13.9
2014-Oct-31 00:41 336 13.9
2014-Oct-31 00:31 001 13.9
2014-Oct-31 00:21 293 13.9
2014-Oct-31 00:11 001 13.9
2014-Oct-30 23:51 020 13.9
2014-Oct-30 23:41 002 14.4
2014-Oct-30 23:31 14.4
2014-Oct-30 23:21 025 14.4
2014-Oct-30 23:11 112 14.4
2014-Oct-30 23:01 202 14.4
2014-Oct-30 22:51 273 14.4
2014-Oct-30 22:41 295 15.0
2014-Oct-30 22:31 019 15.0
2014-Oct-30 22:21 024 15.0
2014-Oct-30 22:11 225 15.0
2014-Oct-30 22:01 202 15.0
2014-Oct-30 21:51 002 15.0
2014-Oct-30 21:41 224 15.6
2014-Oct-30 21:31 227 15.6
2014-Oct-30 21:21 249 15.6
2014-Oct-30 21:11 047 15.6
2014-Oct-30 21:01 202 15.6
2014-Oct-30 20:51 224 15.6
2014-Oct-30 20:41 292 15.6
2014-Oct-30 20:31 226 16.1
2014-Oct-30 20:21 227 15.6
2014-Oct-30 20:11 020 15.6
2014-Oct-30 20:01 319 16.1
2014-Oct-30 19:51 111 16.1
2014-Oct-30 19:41 273 16.1
2014-Oct-30 19:31 093 16.7
2014-Oct-30 19:21 16.7
2014-Oct-30 19:11 091 16.7
2014-Oct-30 19:01 220 16.7
2014-Oct-30 18:51 205 16.7
2014-Oct-30 18:41 273 16.7
2014-Oct-30 18:31 246 16.7
2014-Oct-30 18:21 227 17.2
2014-Oct-30 18:11 221 17.2
2014-Oct-30 18:01 233 17.2
2014-Oct-30 17:51 021 17.2
2014-Oct-30 17:41 091 17.2
2014-Oct-30 17:31 245 17.2
2014-Oct-30 17:21 290 17.8
2014-Oct-30 17:11 247 17.8
2014-Oct-30 17:01 252 18.3
2014-Oct-30 16:51 021 18.3
2014-Oct-30 16:41 272 18.9
2014-Oct-30 16:31 087 18.9
2014-Oct-30 16:21 109 18.9
2014-Oct-30 16:11 271 19.4
2014-Oct-30 16:01 060 19.4
2014-Oct-30 15:51 112 0 gusting 2 19.4
2014-Oct-30 15:41 133 0 gusting 4 20.0
2014-Oct-30 15:31 090 1 gusting 4 20.0
2014-Oct-30 15:21 112 1 gusting 4 20.6
2014-Oct-30 15:11 022 1 gusting 5 20.6
2014-Oct-30 15:01 128 1 gusting 4 21.1
2014-Oct-30 14:51 025 1 gusting 4 21.7
2014-Oct-30 14:41 093 1 gusting 4 21.7
2014-Oct-30 14:31 112 1 gusting 4 21.7
2014-Oct-30 14:21 070 1 gusting 6 21.7
2014-Oct-30 14:11 025 1 gusting 5 23.3
2014-Oct-30 14:01 068 1 gusting 5 22.8
2014-Oct-30 13:51 068 1 gusting 4 22.2
2014-Oct-30 13:41 138 1 gusting 5 22.2
2014-Oct-30 13:31 114 1 gusting 2 23.3
2014-Oct-30 13:21 110 2 gusting 5 23.3
2014-Oct-30 13:11 089 2 gusting 5 23.3
2014-Oct-30 13:01 108 1 gusting 5 23.9
2014-Oct-30 12:51 086 2 gusting 6 23.9
2014-Oct-30 12:41 110 2 gusting 5 23.9
2014-Oct-30 12:31 088 2 gusting 6 23.9
2014-Oct-30 12:21 133 2 gusting 6 23.3
2014-Oct-30 12:11 114 2 gusting 6 23.9
2014-Oct-30 12:01 081 2 gusting 6 23.9
2014-Oct-30 11:51 132 1 gusting 6 24.4
2014-Oct-30 11:41 047 2 gusting 6 23.9
2014-Oct-30 11:31 025 2 gusting 6 23.9
2014-Oct-30 11:21 133 1 gusting 6 23.3
2014-Oct-30 11:11 049 1 gusting 6 23.3
2014-Oct-30 11:01 015 0 gusting 4 22.2
2014-Oct-30 10:51 064 0 gusting 4 20.6
2014-Oct-30 10:41 200 20.6
2014-Oct-30 10:31 066 20.6
2014-Oct-30 10:21 315 20.6